Location: Caser�o Perales de Milla
(40.4053°N, 4.0991°W)
Time: 21:38:08
(UTC+00:00)

Daily predictions for brighter satellites

Satellite Brightness Start Highest point End
(mag) Time Altitude Azimuth Time Altitude Azimuth Time Altitude Azimuth
NOAA 6 4.3 17:14:23 10° SE 17:19:18 48° ENE 17:24:15 10° N
Cosmos 2034 Rocket 4.1 17:13:35 10° SSE 17:19:32 53° E 17:25:30 10° NNE
CZ-2C R/B 3.9 17:18:02 10° NE 17:21:47 20° E 17:25:29 10° SE
Cosmos 1842 Rocket 3.6 17:17:57 10° S 17:22:19 65° E 17:26:45 10° NNE
ATLAS CENTAUR R/B 3.7 17:22:04 10° W 17:25:01 19° NW 17:28:08 10° N
Cosmos 1763 Rocket 4.0 17:20:41 10° S 17:25:21 39° ESE 17:30:03 10° NE
COSMOS 2455 4.2 17:21:48 10° SSE 17:25:56 20° ESE 17:30:05 10° ENE
Sich 1 4.4 17:28:58 10° NNE 17:31:51 17° ENE 17:34:45 10° ESE
USA 267 4.2 17:25:53 10° NE 17:31:54 41° NNW 17:37:56 10° W
Cosmos 2221 2.8 17:32:46 10° SSW 17:37:00 73° W 17:41:18 10° N
ATLAS 5 CENTAUR R/B 4.3 17:38:17 10° NW 17:43:16 15° N 17:46:05 10° NE
Cosmos 990 Rocket 4.2 17:39:03 10° N 17:44:03 45° ENE 17:48:59 10° SE
Cosmos 1634 Rocket 4.5 17:38:24 10° SSE 17:44:09 39° E 17:49:57 10° NNE
USA 229 DEB 4.3 17:37:26 10° NNW 17:44:21 42° NE 17:51:39 10° ESE
USA 229 4.3 17:37:32 10° NNW 17:44:27 42° NE 17:51:44 10° ESE
CZ-2C R/B 3.8 17:39:37 10° S 17:44:34 55° W 17:49:20 10° NNW
deb Chang Zheng 4 4.4 17:44:21 10° SE 17:48:01 28° ENE 17:51:41 10° N
Cosmos 1697 Rocket 3.2 17:46:58 10° N 17:52:07 35° ENE 17:57:13 10° SE
COSMO-SKYMED 1 3.2 17:48:23 10° NNE 17:52:21 34° E 17:56:19 10° SSE
SMAP 3.2 17:48:07 10° S 17:52:46 79° WSW 17:57:27 10° NNW
Cosmos 1782 3.5 17:49:59 10° SSE 17:53:34 32° E 17:57:00 11° NNE
Cosmos 1656 3.6 17:48:17 10° NNW 17:53:50 72° ENE 17:59:25 10° SSE
Cosmos 1980 Rocket 3.4 17:50:07 10° N 17:54:17 20° NE 17:56:40 16° E
BREEZE-M DEB (TANK) 4.1 17:46:19 10° WNW 17:55:35 81° SW 17:58:44 10° SE
MOS 1-B 4.4 17:50:52 10° SSE 17:56:31 59° ENE 18:02:11 10° N
Cosmos 1812 4.0 17:54:24 10° SE 17:57:11 19° E 17:57:29 19° E
Cosmos 2026 Rocket 4.1 17:54:05 10° N 18:00:02 49° ENE 18:05:53 10° SSE
Okean O Rocket 2.3 17:56:48 10° SE 18:00:44 32° ENE 18:04:42 10° N
CZ-4B DEB 4.2 17:55:13 10° SSE 18:00:45 87° ENE 18:06:18 10° NNW
Cosmos 2082 Rocket 3.0 17:56:59 10° SSE 18:01:55 31° ESE 18:05:10 18° NE
Cosmos 2195 Rocket 4.5 17:56:24 10° N 18:02:29 61° E 18:08:35 10° SSE
USA 234 3.5 17:57:15 10° SE 18:03:48 76° SW 18:10:21 10° NW
Cosmos 44 3.1 18:01:18 10° NNW 18:06:04 88° ENE 18:10:30 10° SSE
Cosmos 2084 4.0 18:02:20 10° NNW 18:06:22 37° NE 18:09:02 19° ESE
Cosmos 1340 Rocket 3.1 18:03:37 10° NNW 18:07:41 72° W 18:11:43 10° S
NOSS 3-1 (A) 4.1 18:00:29 10° NNW 18:08:03 62° NE 18:16:48 10° SE
COSMOS 2406 3.2 18:04:37 10° S 18:10:18 64° ESE 18:15:25 13° NNE
NOSS 3-1 (C) 4.2 18:02:51 10° NW 18:10:36 87° WSW 18:19:33 10° SSE
Cosmos 1602 3.7 18:07:13 10° N 18:11:02 58° E 18:14:50 10° SSE
SJ-11-01 4.4 18:13:32 10° SSE 18:18:06 50° ENE 18:22:42 10° N
PAYLOAD B 4.3 18:13:46 10° SSE 18:19:22 84° WSW 18:25:01 10° NNW
Cosmos 1933 3.5 18:15:33 10° SSW 18:19:35 73° W 18:23:39 10° N
Cosmos 1743 Rocket 4.0 18:16:01 10° NNW 18:20:18 64° W 18:24:34 10° S
CZ-4C R/B 3.8 18:14:25 10° NNW 18:20:31 29° NE 18:23:06 24° ENE
CZ-2D R/B 3.7 18:19:20 10° S 18:23:09 63° W 18:26:58 10° NNW
GPS 2-04 Rocket1 3.7 18:19:54 10° WSW 18:23:43 37° S 18:25:14 27° SE
Cosmos 1898 Rocket 3.4 18:20:57 10° NNW 18:26:14 80° ENE 18:31:26 10° SSE
H-2A R/B 2.2 18:21:19 10° S 18:26:36 79° WSW 18:31:44 10° NNW
Meteor 1-26 Rocket 4.3 18:24:16 10° S 18:30:09 85° E 18:36:13 10° N
Cosmos 540 Rocket 3.4 18:25:46 10° SSW 18:30:52 89° WNW 18:34:57 16° NNE
Cosmos 1666 Rocket 3.9 18:27:39 10° N 18:31:53 42° ENE 18:36:04 10° SSE
Cosmos 1833 Rocket 3.0 18:26:59 10° SSW 18:32:33 65° WNW 18:37:45 12° NNE
Meteor 2-14 Rocket 4.3 18:26:27 10° N 18:32:35 81° E 18:38:39 10° S
ISS -1.4 18:31:24 10° NNW 18:32:38 14° N 18:32:38 14° N
Cosmos 1151 Rocket 3.1 18:29:29 10° S 18:33:37 51° E 18:34:32 43° NE
ARGOS 3.0 18:32:41 10° SSE 18:38:06 79° ENE 18:43:32 10° N
TRACE 4.5 18:37:35 52° NNE 18:38:23 75° ESE 18:42:05 10° S
Cosmos 1328 Rocket 4.3 18:34:28 10° SSE 18:37:39 36° SE 18:37:39 36° SE
CZ-4B R/B 3.2 18:33:56 10° SSE 18:39:25 81° WSW 18:44:50 10° NNW
SKYMED 2 3.8 18:36:09 10° N 18:40:29 68° WNW 18:44:47 10° SSW
Cosmos 2360 4.1 18:37:05 10° NNW 18:42:51 82° ENE 18:48:33 10° SSE
Spot 2 4.5 18:45:10 10° SSE 18:50:06 55° ENE 18:55:09 10° N
Meteor 2-21 Rocket 4.3 18:44:07 10° N 18:50:15 83° E 18:56:19 10° S
Meteor 2-8 Rocket 4.4 18:47:14 10° S 18:53:16 63° E 18:57:07 23° NNE
Meteor 1-14 Rocket 4.2 18:49:09 10° N 18:54:58 75° E 19:00:52 10° SSE
USA 276 4.1 18:52:35 10° NW 18:54:00 24° NW 18:54:00 24° NW
CZ-4C R/B 4.2 18:57:12 33° SSW 18:57:12 33° SSW 18:59:09 10° SSW
Cosmos 1500 3.9 18:56:05 10° NNW 18:59:43 51° W 19:03:20 10° S
CZ-2C R/B 3.4 18:57:20 10° N 19:02:20 47° WNW 19:07:15 10° SW
Cosmos 841 Rocket 4.2 19:04:34 10° SW 19:09:36 52° WNW 19:12:10 27° N
Sich 1 4.5 19:05:42 10° NNW 19:09:38 36° W 19:13:34 10° SSW
COSMOS 2455 3.1 19:05:18 10° SW 19:11:16 65° WNW 19:13:43 36° N
Cosmos 1937 Rocket 4.2 19:07:09 10° NNW 19:12:21 54° WSW 19:17:30 10° S
NOAA 15 4.5 19:09:07 10° SSE 19:14:25 89° WSW 19:19:44 10° NNW
NOSS 2-2 (C) 4.4 19:09:20 10° NNW 19:14:51 71° NE 19:15:27 66° E
GEOS 3 Rocket 3.5 19:14:14 67° SSE 19:14:58 85° SW 19:20:12 10° NW
Cosmos 2279 Rocket 4.4 19:11:32 10° SSW 19:17:40 61° W 19:23:49 10° N
DMSP B5D2-2 4.0 19:19:54 82° NW 19:19:59 83° WNW 19:25:12 10° SSW
Cosmos 2369 4.2 19:25:29 10° NNW 19:31:05 56° WSW 19:33:57 28° S
ATLAS CENTAUR R/B 4.2 19:28:12 10° W 19:34:23 24° NW 19:35:23 22° NNW
Cosmos 1697 Rocket 4.3 19:31:03 10° NW 19:35:58 32° WSW 19:40:52 10° SSW
Okean O Rocket 3.9 19:33:35 10° SSW 19:37:06 23° W 19:40:38 10° NW
Cosmos 1980 Rocket 2.5 19:33:10 10° NNW 19:38:33 62° W 19:38:33 62° W
Cosmos 1655 Rocket 4.5 19:35:52 10° N 19:49:39 - S 19:40:33 51° NNW
Cosmos 2082 Rocket 3.5 19:40:38 10° SW 19:45:53 37° WNW 19:47:04 33° NNW
CZ-4C R/B 3.3 20:02:19 10° NW 20:08:21 63° NW 20:08:21 63° NW
